Warsaw, Polska

11:57 CEST dnia 26-kwiecień-2017 (GMT +0200)
Okecie

Pogoda Historia dla EPWA - marzec, 2017

Change the Weather History Date:

Wtorek, marzec 21, 2017

  Actual Average Record
Temperature  
Temperatura średnia 50 ° F -  
Temperatura maksymalna 55 ° F 51 ° F 72 ° F (2014)
Temperatura minimalna 46 ° F 35 ° F 14 ° F (2013)
Degree Days  
stopnio-dni grzewczych 14    
Moisture  
Punkt rosy 45 ° F    
Average Humidity 79    
Maximum Humidity 93    
Minimum Humidity 57    
Opady  
Opady 0.00 cali 0.04 cali - ()
Ciśnienie na poziomie morza  
Ciśnienie na poziomie morza 29.75 cali    
Wiatr  
Prędkość wiatru 5 mph ()    
Maksymalna prędkość wiatru 11 mph    
Max Gust Speed -    
Widzialność 7.1 mil    
Wydarzenia deszcz    
Averages and records for this station are not official NWS values.
T = Trace of Precipitation, MM = Missing Value Source: Averaged Metar Reports

Daily Weather History Graph

Daily Weather History Graph

Search for Another Location

Airport or City:

Trip Planner

Search our weather history database for the weather conditions in past years. The results will help you decide how hot, cold, wet, or windy it might be!

Date:

Astronomia

Mar. 21, 2017 Wschód Zachów
Aktualny czas 05:36 CET 17:51 CET
Zmierzch cywilny 05:02 CET 18:25 CET
Zmierzch żeglarski 04:22 CET 19:05 CET
świt/zmierzch astronomiczny 03:40 CET 19:47 CET
Księżyc 01:45 CET (3/21) 10:32 CET (3/21)
całkowite oświetlenie 13h 22m
Długość dnia
12h 14m
Ostatnia kwadra, 42% of the Moon is Illuminated
Marzec 21
Ostatnia kwadra
Marzec 28
Nowy
Kwiecień 3
Pierwsza kwadra
Kwiecień 11
Pełnia Księżyca
Kwiecień 19
Ostatnia kwadra

Hourly Weather History & Observations

czas (CET) Temp. Punkt rosy Wilgotność Ciśnienie Widzialność Wind Dir Prędkość wiatru prędkość w porywie Precip Wydarzenia Warunki pogodowe
12:00 AM 48 ° F 46 ° F 90% 29.71 cali 6 mi południowy 2.2 mph - -   pochmurno
12:00 AM 48.2 ° F 46.4 ° F 93% 29.68 cali 6.2 mi PdPdZd 4.6 mph - N/A   przewaga chmur
12:30 AM 48.2 ° F 46.4 ° F 93% 29.68 cali 6.2 mi PdPdZd 5.8 mph - N/A   przewaga chmur
1:00 AM 49 ° F 46 ° F 84% 29.71 cali 6 mi PdPdZd 2.2 mph - -   niewielkie zachmurzenie
1:00 AM 48.2 ° F 46.4 ° F 93% 29.68 cali 6.2 mi PdPdZd 4.6 mph - N/A   przewaga chmur
1:30 AM 48.2 ° F 46.4 ° F 93% 29.68 cali 6.2 mi PdPdZd 5.8 mph - N/A   obłoki zanikające
2:00 AM 50 ° F 45 ° F 78% 29.70 cali 6 mi PdZd 4.5 mph - -   przewaga chmur
2:00 AM 50.0 ° F 44.6 ° F 82% 29.68 cali 6.2 mi PdPdZd 5.8 mph - N/A   niewielkie zachmurzenie
2:30 AM 50.0 ° F 46.4 ° F 87% 29.68 cali 6.2 mi PdPdZd 4.6 mph - N/A   obłoki zanikające
3:00 AM 49 ° F 45 ° F 81% 29.69 cali 6 mi południowy 4.5 mph - -   przewaga chmur
3:00 AM 50.0 ° F 44.6 ° F 82% 29.68 cali 6.2 mi PdPdZd 4.6 mph - N/A   przewaga chmur
3:30 AM 48.2 ° F 44.6 ° F 87% 29.68 cali 6.2 mi PdPdZd 6.9 mph - N/A   niewielkie zachmurzenie
4:00 AM 49 ° F 45 ° F 81% 29.69 cali 6 mi PdZd 4.5 mph - -   przewaga chmur
4:00 AM 48.2 ° F 44.6 ° F 87% 29.68 cali 6.2 mi PdPdZd 6.9 mph - N/A   przewaga chmur
4:30 AM 50.0 ° F 44.6 ° F 82% 29.65 cali 6.2 mi PdPdZd 5.8 mph - N/A   przewaga chmur
5:00 AM 49 ° F 45 ° F 79% 29.69 cali 6 mi PdZd 4.5 mph - -   przewaga chmur
5:00 AM 50.0 ° F 44.6 ° F 82% 29.65 cali 6.2 mi PdPdZd 5.8 mph - N/A   przewaga chmur
5:30 AM 50.0 ° F 44.6 ° F 82% 29.68 cali 6.2 mi PdZd 4.6 mph - N/A   przewaga chmur
6:00 AM 50 ° F 44 ° F 75% 29.69 cali 6 mi PdZd 4.5 mph - -   przewaga chmur
6:00 AM 50.0 ° F 44.6 ° F 82% 29.68 cali 6.2 mi PdZd 5.8 mph - N/A   przewaga chmur
6:30 AM 50.0 ° F 44.6 ° F 82% 29.68 cali 6.2 mi PdZd 5.8 mph - N/A   obłoki zanikające
7:00 AM 50 ° F 44 ° F 73% 29.70 cali 9 mi PdZd 6.7 mph - -   przewaga chmur
7:00 AM 50.0 ° F 44.6 ° F 82% 29.68 cali 6.2 mi PdZd 5.8 mph - N/A   przewaga chmur
7:30 AM 51.8 ° F 44.6 ° F 76% 29.68 cali 6.2 mi PdZd 5.8 mph - N/A   przewaga chmur
8:00 AM 51 ° F 44 ° F 69% 29.72 cali 12 mi ZdPdZd 6.7 mph - -   pochmurno
8:00 AM 51.8 ° F 44.6 ° F 76% 29.68 cali 6.2 mi ZdPdZd 5.8 mph - N/A   przewaga chmur
8:30 AM 48.2 ° F 46.4 ° F 93% 29.71 cali 2.5 mi zachodni 8.1 mph - N/A deszcz lekki deszcz
9:00 AM 48 ° F 46 ° F 91% 29.73 cali 4 mi ZdPdZd 6.7 mph - - deszcz lekki deszcz
9:00 AM 48.2 ° F 46.4 ° F 93% 29.71 cali 3.1 mi zachodni 5.8 mph - N/A deszcz lekki deszcz
9:30 AM 50.0 ° F 46.4 ° F 87% 29.71 cali 6.2 mi zachodni 6.9 mph - N/A   przewaga chmur
10:00 AM 50 ° F 47 ° F 86% 29.75 cali 6 mi ZdPdZd 6.7 mph - - deszcz lekki deszcz
10:00 AM 50.0 ° F 46.4 ° F 87% 29.74 cali 6.2 mi ZdPdZd 6.9 mph - N/A   przewaga chmur
10:30 AM 51.8 ° F 46.4 ° F 82% 29.74 cali 6.2 mi PdZd 8.1 mph - N/A   przewaga chmur
11:00 AM 54 ° F 47 ° F 70% 29.75 cali 9 mi ZdPdZd 6.7 mph - -   pochmurno
11:00 AM 53.6 ° F 46.4 ° F 77% 29.74 cali 6.2 mi ZdPdZd 9.2 mph - N/A   przewaga chmur
11:30 AM 53.6 ° F 46.4 ° F 77% 29.74 cali 6.2 mi zachodni 8.1 mph - N/A   przewaga chmur
12:00 PM 53 ° F 46 ° F 70% 29.78 cali 9 mi zachodni 11.2 mph - -   przewaga chmur
12:00 PM 53.6 ° F 46.4 ° F 77% 29.77 cali 6.2 mi zachodni 6.9 mph - N/A   przewaga chmur
12:30 PM 55.4 ° F 46.4 ° F 72% 29.77 cali 6.2 mi ZdPdZd 8.1 mph - N/A   przewaga chmur
1:00 PM 54 ° F 47 ° F 70% 29.77 cali 12 mi ZdPdZd 6.7 mph - -   niewielkie zachmurzenie
1:00 PM 53.6 ° F 46.4 ° F 77% 29.74 cali 6.2 mi PdZd 8.1 mph - N/A   przewaga chmur
1:30 PM 55.4 ° F 46.4 ° F 72% 29.77 cali 6.2 mi PdZd 8.1 mph - N/A   przewaga chmur
2:00 PM 54 ° F 46 ° F 67% 29.78 cali 12 mi PdPdZd 4.5 mph - -   przewaga chmur
2:00 PM 53.6 ° F 46.4 ° F 77% 29.77 cali 6.2 mi PdZd 6.9 mph - N/A   przewaga chmur
2:30 PM 55.4 ° F 46.4 ° F 72% 29.77 cali 6.2 mi PdZd 5.8 mph - N/A   obłoki zanikające
3:00 PM 55 ° F 46 ° F 64% 29.79 cali 12 mi PdZd 4.5 mph - -   przewaga chmur
3:00 PM 55.4 ° F 46.4 ° F 72% 29.77 cali 6.2 mi PdPdZd 6.9 mph - N/A   przewaga chmur
3:30 PM 55.4 ° F 46.4 ° F 72% 29.77 cali 6.2 mi PdPdZd 5.8 mph - N/A   obłoki zanikające
4:00 PM 56 ° F 45 ° F 57% 29.79 cali 12 mi PdZd 4.5 mph - -   przewaga chmur
4:00 PM 55.4 ° F 44.6 ° F 67% 29.77 cali 6.2 mi PdZd 6.9 mph - N/A   obłoki zanikające
4:30 PM 55.4 ° F 44.6 ° F 67% 29.77 cali 6.2 mi ZdPdZd 6.9 mph - N/A   przewaga chmur
5:00 PM 55 ° F 45 ° F 59% 29.80 cali 12 mi PdPdZd 2.2 mph - -   pochmurno
5:00 PM 55.4 ° F 44.6 ° F 67% 29.77 cali 6.2 mi PdZd 5.8 mph - N/A   obłoki zanikające
5:30 PM 53.6 ° F 44.6 ° F 72% 29.77 cali 6.2 mi PdPdZd 4.6 mph - N/A   niewielkie zachmurzenie
6:00 PM 53 ° F 44 ° F 63% 29.81 cali 12 mi południowy 2.2 mph - -   pochmurno
6:00 PM 53.6 ° F 44.6 ° F 72% 29.80 cali - PdPdZd 3.5 mph - N/A   pogodnie
6:30 PM 51.8 ° F 42.8 ° F 71% 29.80 cali - południowy 3.5 mph - N/A   pogodnie
7:00 PM 51 ° F 44 ° F 70% 29.83 cali 9 mi południowy 4.5 mph - -   pochmurno
7:00 PM 50.0 ° F 44.6 ° F 82% 29.80 cali - południowy 4.6 mph - N/A   pogodnie
7:30 PM 50.0 ° F 44.6 ° F 82% 29.80 cali - południowy 4.6 mph - N/A   pogodnie
8:00 PM 50 ° F 44 ° F 75% 29.84 cali 9 mi południowy 4.5 mph - -   pochmurno
8:00 PM 50.0 ° F 44.6 ° F 82% 29.83 cali - południowy 4.6 mph - N/A   pogodnie
8:30 PM 50.0 ° F 44.6 ° F 82% 29.83 cali - południowy 4.6 mph - N/A   pogodnie
9:00 PM 50 ° F 44 ° F 74% 29.84 cali 9 mi południowy 4.5 mph - -   pochmurno
9:00 PM 50.0 ° F 44.6 ° F 82% 29.83 cali - południowy 4.6 mph - N/A   pogodnie
9:30 PM 50.0 ° F 44.6 ° F 82% 29.83 cali 6.2 mi PdPdZd 3.5 mph - N/A deszcz lekki deszcz
10:00 PM 48 ° F 45 ° F 87% 29.86 cali 9 mi cisza cisza - - deszcz lekki deszcz
10:00 PM 50.0 ° F 44.6 ° F 82% 29.83 cali 6.2 mi PdPdZd 3.5 mph - N/A deszcz lekki deszcz
10:30 PM 48.2 ° F 44.6 ° F 87% 29.83 cali 6.2 mi PdPdZd 1.2 mph - N/A deszcz lekki deszcz
11:00 PM 47 ° F 45 ° F 92% 29.87 cali 12 mi PdZd 2.2 mph - - deszcz lekki deszcz
11:00 PM 48.2 ° F 44.6 ° F 87% 29.86 cali - zmienny 2.3 mph - N/A   pogodnie
11:30 PM 48.2 ° F 44.6 ° F 87% 29.86 cali 6.2 mi PdPdZd 3.5 mph - N/A deszcz lekki deszcz